Location: Taunton
(51.0167°N, 3.1000°W)
Time: 00:27:39
(UTC+01:00)

ISS - Visible Passes

Search period start: 20 July 2018 00:00
Search period end: 30 July 2018 00:00
Orbit: 402 x 408 km, 51.6° (Epoch: 20 July)

Date Brightness Start Highest point End Pass type
(mag) Time Alt. Az. Time Alt. Az. Time Alt. Az.
20 Jul -3.8 01:13:15 10° W 01:16:33 80° N 01:19:51 10° E visible
20 Jul -4.0 02:49:48 10° W 02:53:06 80° SSW 02:56:24 10° ESE visible
20 Jul -2.7 04:26:33 10° W 04:29:19 25° SSW 04:32:04 10° SSE visible
20 Jul -3.1 22:45:11 10° SW 22:48:09 31° SSE 22:51:07 10° E visible
21 Jul -3.9 00:21:08 10° WSW 00:24:26 90° SSW 00:27:45 10° E visible
21 Jul -3.9 01:57:42 10° W 02:01:00 86° N 02:04:18 10° E visible
21 Jul -3.3 03:34:16 10° W 03:37:21 36° SSW 03:40:25 10° SE visible
21 Jul -2.5 21:53:39 10° SSW 21:56:13 21° SE 21:58:46 10° E visible
21 Jul -4.0 23:29:03 10° WSW 23:32:20 73° SSE 23:35:38 10° ENE visible
22 Jul -3.8 01:05:34 10° W 01:08:52 78° N 01:12:10 10° E visible
22 Jul -3.8 02:42:06 10° W 02:45:19 53° SSW 02:48:32 10° SE visible
22 Jul -2.0 04:19:30 10° WSW 04:21:16 14° SW 04:23:02 10° S visible
22 Jul -3.7 22:37:02 10° SW 22:40:15 53° SSE 22:43:29 10° E visible
23 Jul -3.8 00:13:25 10° W 00:16:42 78° N 00:20:01 10° E visible
23 Jul -4.0 01:49:57 10° WNW 01:53:15 73° SSW 01:53:20 72° S visible
23 Jul -3.8 23:21:16 10° W 23:24:33 86° N 23:27:51 10° E visible
24 Jul -3.9 00:57:49 10° W 01:01:07 90° SSW 01:01:43 56° ESE visible
24 Jul -3.9 22:29:07 10° WSW 22:32:24 80° SSE 22:35:42 10° E visible
25 Jul -3.8 00:05:39 10° W 00:08:56 80° N 00:10:45 25° E visible
25 Jul -1.9 01:42:11 10° W 01:43:21 20° W 01:43:21 20° W visible
25 Jul -3.7 23:13:27 10° W 23:16:45 77° N 23:19:58 11° E visible
26 Jul -3.4 00:49:59 10° W 00:52:35 49° WSW 00:52:35 49° WSW visible
26 Jul -3.8 22:21:16 10° W 22:24:33 82° N 22:27:51 10° E visible
26 Jul -4.0 23:57:49 10° W 00:01:06 84° SSW 00:01:54 48° ESE visible
27 Jul -1.0 01:34:28 10° W 01:34:31 10° W 01:34:31 10° W visible
27 Jul -3.8 23:05:37 10° W 23:08:55 83° N 23:11:16 18° E visible
28 Jul -2.3 00:42:10 10° W 00:43:53 25° W 00:43:53 25° W visible
28 Jul -3.7 22:13:23 10° W 22:16:41 78° N 22:19:59 10° E visible
28 Jul -3.8 23:49:55 10° W 23:53:10 58° SSW 23:53:17 57° S visible
29 Jul -3.9 22:57:41 10° W 23:00:59 78° SSW 23:02:43 25° ESE visible
